Agen Bola Online

Jackpot

Texas Poker Multi Jackpot System

Kini Telah hadir Jackpot SUPER ROYAL FLUSH

Kini Telah hadir Jackpot 2000 (khusus table VIP keatas).

Ikutilah global jackpot yang tersedia di system kami, dengan system jackpot terbaru dan pertama di indonesia, anda dapat membeli jackpot dengan harga 100 rupiah saja dan menangkan hadiahnya hingga puluhan juta rupiah.

Jackpot bukanlah suatu keharusan untuk dibeli, namun kami memberikan suatu fitur tambahan untuk member tercinta dari www.dewakartu168.com.

Terdapat tiga pilihan harga jackpot yang bisa anda beli yaitu :100,500,1000 dan 2000(khusus table VIP Keatas) rupiah.

Hadiah dari Multi jackpot system www.dewakartu168.com

  1. full house x 10 harga jackpot yang anda beli.
      (contoh:anda membeli 1000 maka:1000 X10 = 10.000)
  2. four of kind x 250 harga jackpot yang anda beli
      (contoh:anda membeli 1000 maka:1000 X250 = 250.000)
  3. Straight flush x 1200
      (contoh:anda membeli 1000 maka:1000 X1200 = 1.200.000)
  4. Royal flush x 10000 harga jackpot yang anda beli
      (contoh:anda membeli 1000 maka:1000 X10000 = 10.000.000)
  5. SUPER ROYAL FLUSH x 30000 harga jackpot yang anda beli
      (contoh:anda membeli 1000 maka:1000 X30000 = 30.000.000)

Kondisi kartu

  1. full house adalah kondisi kartu dimana kartu anda dan kartu tengah dengan total 7 kartu bisa mendapatkan nilai 5 kartu dengan kombinasi 1 tris(three of kind) dan 1 pair, contoh 3 kartu 10 dan 2 kartu 5
  2. Four of kind adalah kondisi kartu dimana kartu anda dan kartu tengah dengan total 7 kartu bisa mendapatkan nilai 5 kartu dengan kombinasi 4 kartu yang sama jumlah dan 1 kartu apapun juga contoh anda mendapatkan 4 buah kartu angka 3 dan 1 kartu apapun.
  3. Staright flush adalah kondisi kartu dimana kartu anda dan kartu tengah dengan total 7 kartu bisa mendapatkan nilai 5 kartu dengan kombinasi seri / staright dengan kembang yang sama contoh : urutan kartu dari angka 5, 6, 7, 8 , 9 10 dengan kembang yg sama misalnya as hati
  4. Royal flush adalah kondisi kartu dimana kartu anda dan kartu tengah dengan total 7 kartu bisa mendapatkan nilai 5 kartu dengan kombinasi seri / staright dengan kembang yang sama tetapi kartu tersebut haruslah dimulai dari 10. contoh 10, Queen, Jack, King dan aces dengan kembang yang sama
  5. Super Royal flush adalah kondisi kartu dimana Kedua kartu anda digabung dengan 3 kartu pertama meja haruslah royal flush. contoh kartu anda 10,Queen kembang sama dan 3 kartu pertama meja adalah Jack, King dan aces dengan kembang yang sama

Demikian adalah penjelasan dari Multi Jackpot www.dewakartu168.com terima kasih dan selamat bermain salam hoki dari kami

Texas Poker Jackpot Winner

TOP SUPER ROYAL FLUSH
No.TanggalNamaPriceWin
122/09 10:13THEMIN88Super Royal flush15,000,000
222/09 02:24TAUN101Super Royal flush30,000,000
321/09 14:11ROYALJOZZSuper Royal flush60,000,000
421/09 13:43BA_ATIYOSuper Royal flush6,000,000
521/09 12:23B8EKCBJIYMSuper Royal flush3,000,000
TOP ROYAL FLUSH
No.TanggalNamaPriceWin
122/09 11:48RAWNA007Royal flush10,000,000
222/09 11:44OM9VJ4IB8URoyal flush5,000,000
322/09 11:44ID2012Royal flush5,000,000
422/09 11:30AIYRA20Royal flush5,000,000
522/09 11:29ROCKY7CRoyal flush2,000,000
TOP STRAIGHT FLUSH
No.TanggalNamaPriceWin
122/09 11:51E4632725Straight Flush240,000
222/09 11:50WARNAStraight Flush600,000
322/09 11:47JITU_KALU8Straight Flush240,000
422/09 11:46MBAE90Straight Flush60,000
522/09 11:42ROYFLASHStraight Flush600,000
LATEST JACKPOT
No.TanggalNamaPriceWin
122/09 11:53KYUZORA123Full House10,000
222/09 11:53L4ZIOFull House5,000
322/09 11:53DHEWY65Full House5,000
422/09 11:53RINTOATMADFull House2,000
522/09 11:53BONGKAR337Full House2,000
622/09 11:53LALAHIFull House10,000
722/09 11:53JABRIX69Full House5,000
822/09 11:53MISSA123Full House5,000
922/09 11:53HQ1MFZ36RSFull House5,000
1022/09 11:53RONI1449Full House2,000
1122/09 11:53VIP83Full House5,000
1222/09 11:53HENDRIGUNAFull House10,000
1322/09 11:53ARDUT31Full House2,000
1422/09 11:53TAKUYA01Full House2,000
1522/09 11:53GUNDIELFull House10,000
1622/09 11:53ISSIDFull House5,000
1722/09 11:53BKCGJBFJKFull House1,000
1822/09 11:53MATISEDOPFull House10,000
1922/09 11:53CXSIJRGTYQFull House5,000
2022/09 11:53S1RFull House2,000
2122/09 11:53BOGOR_88Full House2,000
2222/09 11:53AVIKHA96Full House10,000
2322/09 11:53MDQ682536Full House5,000
2422/09 11:53I0QD69I1WSFull House5,000
2522/09 11:53MELETOP9Full House5,000
2622/09 11:53DWBTIANG78Full House5,000
2722/09 11:53SENDOK99Full House1,000
2822/09 11:53FEROMODIFFull House20,000
2922/09 11:53GARENG789Full House2,000
3022/09 11:53BONFull House10,000
3122/09 11:53GER29Full House2,000
3222/09 11:53TYAS28Four Of A Kind50,000
3322/09 11:53QHILEXZ9Full House2,000
3422/09 11:53QIYAS789Full House2,000
3522/09 11:53BAHAR212Full House10,000
3622/09 11:53LOGAWA236Full House2,000
3722/09 11:53Q_RISTAFull House1,000
3822/09 11:53BILIC13Four Of A Kind125,000
3922/09 11:53LK3LFEHU4RFull House2,000
4022/09 11:53PARLAY002Full House10,000
4122/09 11:53KOCOK01Full House2,000
4222/09 11:53B46D1AC0Full House5,000
4322/09 11:53MODOM95Full House1,000
4422/09 11:52WASPADA01Full House5,000
4522/09 11:52DEVI8989Full House5,000
4622/09 11:52CKQAG92DS8Four Of A Kind125,000
4722/09 11:52OYYEEXXSSSFull House5,000
4822/09 11:52DMGLS45Full House10,000
4922/09 11:52QAZWSXEDCFour Of A Kind250,000
5022/09 11:52DBZ0H9UGKEFull House5,000

Domino Multi Jackpot System

Ikutilah global jackpot yang tersedia di system kami, dengan system jackpot terbaru dan pertama di indonesia, anda dapat membeli jackpot dengan harga 100 rupiah saja dan menangkan hadiahnya hingga puluhan juta rupiah.

Jackpot bukanlah suatu keharusan untuk dibeli, namun kami memberikan suatu fitur tambahan untuk member tercinta dari www.dewakartu168.com.

Terdapat tiga pilihan harga jackpot yang bisa anda beli yaitu :100,500 dan 1000 rupiah.

Hadiah dari Multi jackpot system www.dewakartu168.com

  1. Murni Kecil x 50 harga jackpot yang anda beli.
      (contoh:anda membeli 1000 maka:1000 X 50 = 50.000)
  2. Murni Besar x 50 harga jackpot yang anda beli
      (contoh:anda membeli 1000 maka:1000 X 50 = 50.000)
  3. BALAK x 100 harga jackpot yang anda beli
      (contoh:anda membeli 1000 maka:1000 X 100 = 100.000)
  4. ENAM DEWA x 6666 harga jackpot yang anda beli
      (contoh:anda membeli 1000 maka:1000 X 6666 = 6.666.000)

Demikian adalah penjelasan dari Multi Jackpot www.dewakartu168.com terima kasih dan selamat bermain salam hoki dari kami

Domino Jackpot Winner

TOP ENAM DEWA
No.TanggalNamaPriceWin
122/09 11:14C4101CD9murni enam666,600
222/09 04:19SEPTIAN009murni enam666,600
322/09 04:05RIYO1510murni enam3,333,000
422/09 03:59KALBET999murni enam3,333,000
522/09 03:49HARDY1984murni enam666,600
TOP BALAK
No.TanggalNamaPriceWin
122/09 11:52KAMBING23balak50,000
222/09 11:51WAWAN88991balak100,000
322/09 11:42MCDURKYbalak100,000
422/09 11:41SULTObalak50,000
522/09 11:37MPUT0804balak10,000
LATEST JACKPOT
No.TanggalNamaPriceWin
122/09 11:53MONROWAEmurni kecil50,000
222/09 11:53G0MBL0Hmurni besar25,000
322/09 11:52POTENG78murni kecil50,000
422/09 11:52KAMBING23balak50,000
522/09 11:52NIRmurni kecil25,000
622/09 11:52HIKMALLLmurni kecil25,000
722/09 11:51WAWAN88991balak100,000
822/09 11:51A96INACEP88murni besar50,000
922/09 11:51EFSDW514E4murni kecil25,000
1022/09 11:50SXRNS4MWJMmurni kecil25,000
1122/09 11:50OKTAQQmurni kecil50,000
1222/09 11:49KUCIP77murni besar25,000
1322/09 11:47LB996645murni kecil50,000
1422/09 11:47MESUT17murni kecil25,000
1522/09 11:45KENTUNK007murni kecil5,000
1622/09 11:44UMAR469murni kecil50,000
1722/09 11:44FANGCHIUmurni besar5,000
1822/09 11:43DLM123murni kecil50,000
1922/09 11:43MROMEOmurni besar25,000
2022/09 11:43PCK4JUFmurni besar25,000
2122/09 11:42TELEGU96murni besar50,000
2222/09 11:42RYAN8960murni kecil25,000
2322/09 11:42MCDURKYbalak100,000
2422/09 11:41SULTObalak50,000
2522/09 11:41ZAFRAN69murni besar5,000
2622/09 11:40LIAASARImurni besar50,000
2722/09 11:40MAMAX78murni besar25,000
2822/09 11:40BG_OCIDmurni besar50,000
2922/09 11:40MAYABOHAYmurni besar25,000
3022/09 11:40RAMASPMmurni kecil5,000
3122/09 11:39X4R77NPD2Tmurni kecil50,000
3222/09 11:37DOBOLL9murni kecil5,000
3322/09 11:37MPUT0804balak10,000
3422/09 11:35ALDIZA99murni kecil50,000
3522/09 11:35B18B8895murni besar50,000
3622/09 11:35MGELIK9balak100,000
3722/09 11:35PANDAK1murni besar25,000
3822/09 11:34DC44BF0Cmurni besar50,000
3922/09 11:34EFSDW514E4murni besar25,000
4022/09 11:34BARJO123lucky99350,000
4122/09 11:34SULTAN9494murni kecil25,000
4222/09 11:33ELVAROmurni besar50,000
4322/09 11:33JPBOS151murni besar50,000
4422/09 11:32MULES04murni besar50,000
4522/09 11:32SIPUTY88murni kecil5,000
4622/09 11:32LORD38murni kecil50,000
4722/09 11:32ALDIZA99murni kecil50,000
4822/09 11:32MADA77murni kecil50,000
4922/09 11:32G0MBL0Hbalak50,000
5022/09 11:31BARJO123murni besar50,000

Ceme Multi Jackpot System

Jackpot dilihat dari gabungan kartu pemain dengan kartu bandar. Bandar harus membeli jackpot sebanyak jumlah player yang sedang duduk. Sebagai contoh bila terdapat 3 pemain duduk bermain, dan bandar memutuskan untuk membeli jackpot Rp 1.000, maka pada periode tersebut bandar akan membeli jackpot sebanyak 3xRp1.000 = Rp3.000.

Jackpot bukanlah suatu keharusan untuk dibeli, namun kami memberikan suatu fitur tambahan untuk member tercinta dari www.dewakartu168.com.

Terdapat tiga pilihan harga jackpot yang bisa anda beli yaitu :100,500 dan 1000 rupiah.

Hadiah dari Multi jackpot system www.dewakartu168.com

  1. Murni Kecil x 50 harga jackpot yang anda beli.
      (contoh:anda membeli 1000 maka:1000 X 50 = 50.000)
  2. Murni Besar x 50 harga jackpot yang anda beli
      (contoh:anda membeli 1000 maka:1000 X 50 = 50.000)
  3. BALAK x 200 harga jackpot yang anda beli
      (contoh:anda membeli 1000 maka:1000 X 200 = 200.000)
  4. ENAM DEWA x 6666 harga jackpot yang anda beli
      (contoh:anda membeli 1000 maka:1000 X 6666 = 6.666.000)

Demikian adalah penjelasan dari Multi Jackpot www.dewakartu168.com terima kasih dan selamat bermain salam hoki dari kami

Ceme Jackpot Winner

TOP ENAM DEWA
No.TanggalNamaPriceWin
122/09 11:48CINTO123murni enam3,333,000
222/09 11:48SUTA99murni enam666,600
322/09 11:30ZX456murni enam666,600
422/09 11:30RAJJAH99murni enam6,666,000
522/09 11:23DUDUL88murni enam3,333,000
TOP BALAK
No.TanggalNamaPriceWin
122/09 11:52RAHMAT508balak200,000
222/09 11:51HILMI72balak200,000
322/09 11:51SIVA96balak100,000
422/09 11:51TOMJERbalak200,000
522/09 11:50JOEDIbalak200,000
LATEST JACKPOT
No.TanggalNamaPriceWin
122/09 11:53GEPENG85murni kecil25,000
222/09 11:53NGEGARESSmurni kecil50,000
322/09 11:53AYASSSmurni kecil5,000
422/09 11:53BP889921murni besar5,000
522/09 11:53DDL64murni besar50,000
622/09 11:53SMW2408murni besar50,000
722/09 11:53MYPmurni kecil50,000
822/09 11:52CLEONNNNmurni kecil50,000
922/09 11:52RAHMAT508balak200,000
1022/09 11:52SANGGADITYmurni besar50,000
1122/09 11:52MSYAFIQ1murni besar50,000
1222/09 11:52ZX456murni kecil5,000
1322/09 11:52RENGKYmurni kecil5,000
1422/09 11:52TANHUNKIETmurni kecil50,000
1522/09 11:52SABARA97murni kecil5,000
1622/09 11:52RENOVENmurni kecil50,000
1722/09 11:52IRWANDI279murni besar25,000
1822/09 11:52AA383789murni besar5,000
1922/09 11:51ZX359RG4H6murni kecil50,000
2022/09 11:51HILMI72balak200,000
2122/09 11:51SIVA96balak100,000
2222/09 11:51MASNOER69murni kecil50,000
2322/09 11:51TOMJERbalak200,000
2422/09 11:51SINAR_007murni kecil50,000
2522/09 11:51AMBON937murni kecil5,000
2622/09 11:51MIOMERAH11murni besar50,000
2722/09 11:51DWTABENGM2212murni besar50,000
2822/09 11:50UNTUNG2403murni besar50,000
2922/09 11:50DN4DZAINALmurni besar5,000
3022/09 11:50PANILA87murni besar5,000
3122/09 11:50JOEDIbalak200,000
3222/09 11:50BAHDUmurni kecil50,000
3322/09 11:50SANGGADITYmurni besar50,000
3422/09 11:50SATRIAFmurni besar5,000
3522/09 11:50DUWIQQmurni besar5,000
3622/09 11:50LISHENDbalak20,000
3722/09 11:50AMRULUTONbalak20,000
3822/09 11:50AKONGMAILmurni besar50,000
3922/09 11:50DAVA0609murni besar50,000
4022/09 11:49DWBTNI42balak20,000
4122/09 11:49JACKM4murni kecil25,000
4222/09 11:49NICKNICKmurni besar25,000
4322/09 11:49WAHYU1933_murni besar50,000
4422/09 11:49MODOL123murni kecil50,000
4522/09 11:49UNYIL08murni kecil25,000
4622/09 11:49B61EUP127murni kecil25,000
4722/09 11:49DAGUL11murni besar50,000
4822/09 11:49BABEH01balak100,000
4922/09 11:49PREETTbalak200,000
5022/09 11:48IBI766murni besar50,000